Location: Beaurecueil
(43.5122°N, 5.5450°E)
Time: 14:39:57
(UTC+00:00)

Meteor 1-15 Rocket - Pass Details

Date: 18 September 2020
Orbit: 840 x 907 km, 81.2° (Epoch: 30 October)

Event Time Altitude Azimuth Distance (km) Brightness Sun altitude
Exits shadow 19:50:05 - 190° (S) 3,158 7.0 -23.2°
Reaches altitude 10° 19:51:52 10° 191° (S) 2,463 6.5 -23.5°
Maximum altitude 19:57:28 85° 279° (W) 865 4.2 -24.4°
Drops below altitude 10° 20:03:12 10° 9° (N) 2,519 6.9 -25.3°
Sets 20:05:40 0° 10° (N) 3,471 7.6 -25.7°
